[[{"header":{"parameterUnit":"m.s-1","parameterCategory":1,"la1":30.2991,"la2":30.254,"lo1":-89.0895,"lo2":-89.0444,"dy":0.0017,"dx":0.0017,"nx":28,"ny":28,"refTime":"2023-08-24T21:00:00:Z","depth":0,"parameterNumber":2,"parameterNumberName":"U-component_of_WINDS"},"data":[0,0,0,0,0,0,0,0,0,0,0,0,0,0,0,0,0,0,0,0,0,0,0,0,0,0,0,0,0,0,0,0,0,0,0,0,0,0,0,0,0,0,0,0,0,0,0,0,0,0,0,0,0,0,0,0,0,0,-0.0991,-0.0991,0,-0.0992,-0.0992,-0.0992,-0.0967,-0.0967,-0.0966,-0.0965,-0.0969,-0.097,-0.0971,0,0,0,0,0,0,0,0,0,0,0,0,0,-0.0969,-0.0969,-0.0991,-0.0991,-0.0991,-0.0992,-0.0992,-0.0992,-0.0967,-0.0967,-0.0966,-0.0965,-0.0969,-0.097,-0.0971,0,0,0,0,0,0,0,0,0,0,0,0,0,-0.0975,-0.0969,-0.0991,-0.0979,-0.0977,-0.0992,-0.0992,-0.0992,-0.0968,-0.0967,-0.0966,-0.0965,-0.0969,-0.097,-0.0971,-0.0999,0,0,-0.0974,-0.0975,0,0,0,0,0,0,0,0,-0.0975,-0.0976,-0.098,-0.0979,-0.0978,-0.0979,-0.0986,-0.0995,-0.0968,-0.0971,-0.0965,-0.0964,-0.0973,-0.0974,-0.0977,-0.0999,-0.0999,-0.0975,-0.0975,-0.0976,-0.0976,0,0,0,0,0,0,0,-0.0974,-0.0976,-0.0991,-0.098,-0.0979,-0.0974,-0.0974,-0.0988,-0.0978,-0.0971,-0.0969,-0.097,-0.0973,-0.0976,-0.0977,-0.0999,-0.0974,-0.0975,-0.0976,-0.0977,-0.1045,-0.1046,0,0,0,0,0,0,-0.0975,-0.0976,-0.0991,-0.0992,-0.0974,-0.0975,-0.0975,-0.098,-0.0978,-0.0977,-0.0971,-0.0968,-0.0974,-0.0975,-0.0977,-0.101,-0.0976,-0.0977,-0.0977,-0.1044,-0.1045,-0.1047,0,0,0,0,0,0,-0.0975,-0.0977,-0.0991,-0.0983,-0.0984,-0.0976,-0.0982,-0.098,-0.0983,-0.0978,-0.0976,-0.0975,-0.0974,-0.0975,-0.0993,-0.101,-0.0977,-0.0978,-0.1043,-0.1044,-0.1046,-0.1076,0,0,0,0,0,0,-0.0974,-0.0977,-0.0987,-0.0983,-0.0985,-0.1008,-0.0983,-0.0981,-0.0985,-0.0982,-0.0982,-0.0981,-0.0973,-0.0992,-0.0995,-0.1011,-0.0979,-0.1041,-0.1043,-0.1045,-0.1074,-0.1079,-0.1083,0,0,0,0,0,-0.0974,-0.0995,-0.0987,-0.0989,-0.0997,-0.1008,-0.1009,-0.1,-0.0986,-0.0997,-0.0993,-0.0981,-0.1007,-0.0994,-0.0997,-0.1014,-0.104,-0.1043,-0.1045,-0.1072,-0.1078,-0.1083,0,0,0,0,0,0,-0.1002,-0.0995,-0.0986,-0.1007,-0.1008,-0.1004,-0.1017,-0.1006,-0.1012,-0.1009,-0.0997,-0.0997,-0.1018,-0.1017,-0.1003,-0.1041,-0.1021,-0.1025,-0.1041,-0.1047,-0.1051,-0.1052,-0.098,0,0,0,0,0,-0.101,-0.1019,-0.1013,-0.1033,-0.1034,-0.1025,-0.103,-0.1022,-0.1023,-0.1024,-0.1022,-0.1024,-0.1033,-0.104,-0.1047,-0.1073,-0.1074,-0.1086,-0.1091,-0.1095,-0.1098,-0.1113,-0.1119,-0.1055,-0.1055,-0.1055,0,0,-0.1028,-0.1026,-0.1032,-0.1038,-0.1038,-0.1049,-0.1026,-0.1038,-0.1046,-0.1026,-0.1044,-0.1042,-0.1044,-0.1066,-0.1076,-0.1067,-0.1116,-0.1098,-0.1101,-0.1103,-0.1117,-0.1123,-0.1128,-0.1057,-0.1056,-0.1056,0,0,-0.1067,-0.1065,-0.1082,-0.1082,-0.1083,-0.1077,-0.1081,-0.1078,-0.1076,-0.1093,-0.1079,-0.1089,-0.1104,-0.1106,-0.111,-0.1149,-0.1139,-0.1152,-0.1177,-0.1192,-0.1197,-0.1202,-0.1218,-0.1223,-0.1155,-0.1155,-0.1156,0,-0.109,-0.1105,-0.1092,-0.1105,-0.1109,-0.109,-0.1108,-0.1109,-0.1112,-0.1116,-0.1104,-0.1124,-0.1123,-0.1147,-0.1157,-0.1159,-0.1165,-0.1153,-0.1197,-0.1202,-0.1206,-0.1221,-0.1227,-0.1157,-0.1157,-0.1157,-0.1157,0,-0.1134,-0.1144,-0.1158,-0.1161,-0.1166,-0.1181,-0.1171,-0.1178,-0.117,-0.1165,-0.1184,-0.1183,-0.1191,-0.1195,-0.1187,-0.1218,-0.1212,-0.1199,-0.118,-0.1214,-0.1228,-0.1233,-0.116,-0.1159,-0.1159,-0.1158,0,0,-0.1191,-0.1187,-0.1192,-0.1194,-0.1193,-0.1201,-0.1216,-0.1223,-0.123,-0.1232,-0.1246,-0.1259,-0.1247,-0.1251,-0.1243,-0.1255,-0.1289,-0.1241,-0.1241,-0.1252,-0.1325,-0.1336,-0.1343,-0.1281,-0.1282,-0.1283,-0.1325,0,-0.1231,-0.1255,-0.1244,-0.127,-0.1281,-0.1263,-0.1276,-0.1277,-0.1273,-0.1282,-0.1278,-0.1289,-0.1271,-0.1274,-0.1285,-0.1283,-0.1304,-0.1279,-0.1295,-0.1296,-0.1297,-0.135,-0.1362,-0.1402,-0.1331,-0.1331,-0.1332,0,-0.128,-0.1284,-0.1311,-0.1309,-0.1313,-0.1325,-0.1331,-0.1339,-0.134,-0.1337,-0.1341,-0.133,-0.1346,-0.1325,-0.1347,-0.1331,-0.1336,-0.1336,-0.1337,-0.134,-0.1317,-0.1356,-0.1414,-0.1421,-0.134,-0.134,-0.1339,0,-0.1321,-0.1334,-0.1352,-0.1354,-0.1351,-0.136,-0.1359,-0.136,-0.1365,-0.137,-0.1374,-0.1381,-0.1385,-0.1392,-0.1384,-0.1369,-0.1408,-0.1386,-0.1407,-0.1407,-0.1417,-0.1417,-0.1479,-0.1418,-0.1418,-0.1418,-0.1417,0,-0.1367,-0.1385,-0.1371,-0.1382,-0.1402,-0.1389,-0.1409,-0.1407,-0.1407,-0.1419,-0.1403,-0.1414,-0.1402,-0.1413,-0.1406,-0.1427,-0.1428,-0.1427,-0.1426,-0.143,-0.143,-0.1435,-0.1432,-0.1419,-0.1419,-0.1419,-0.1418,0,-0.1418,-0.1409,-0.1428,-0.1423,-0.1423,-0.1438,-0.1434,-0.1445,-0.144,-0.1455,-0.1458,-0.145,-0.1462,-0.1454,-0.1465,-0.1461,-0.1488,-0.1482,-0.1488,-0.1487,-0.1509,-0.1508,-0.1578,-0.1587,-0.1518,-0.1518,-0.1519,0,-0.1449,-0.1462,-0.1459,-0.1465,-0.1465,-0.1475,-0.1481,-0.1468,-0.1475,-0.1477,-0.1489,-0.1498,-0.1506,-0.1525,-0.1522,-0.1531,-0.1526,-0.155,-0.1527,-0.1531,-0.1529,-0.1529,-0.1531,-0.1555,-0.1556,-0.1556,-0.1557,0,-0.1505,-0.15,-0.1508,-0.1514,-0.152,-0.1525,-0.1528,-0.1534,-0.1522,-0.153,-0.1541,-0.1547,-0.1558,-0.1569,-0.1577,-0.1577,-0.1566,-0.1564,-0.1569,-0.1575,-0.1578,-0.1578,-0.1502,-0.1563,-0.1562,-0.1562,-0.1561,-0.1561,-0.1549,-0.156,-0.156,-0.1569,-0.157,-0.1573,-0.1584,-0.1579,-0.1588,-0.1597,-0.1589,-0.1603,-0.1605,-0.1613,-0.1615,-0.1627,-0.1617,-0.1625,-0.1627,-0.163,-0.1634,-0.1575,-0.1628,-0.1628,-0.1628,-0.1627,-0.1627,0,-0.1606,-0.1604,-0.1613,-0.1618,-0.1625,-0.1612,-0.1615,-0.1623,-0.1635,-0.1637,-0.1645,-0.1658,-0.1668,-0.1665,-0.1675,-0.1685,-0.168,-0.1688,-0.1688,-0.1689,-0.1641,-0.1636,-0.1692,-0.1692,-0.1692,-0.1692,-0.1692,-0.1692,-0.1637,-0.1656,-0.165,-0.167,-0.1669,-0.1682,-0.1685,-0.1689,-0.169,-0.1706,-0.1714,-0.1711,-0.1712,-0.1721,-0.1731,-0.173,-0.1735,-0.1745,-0.1742,-0.1698,-0.1692,-0.1686,-0.1681,-0.1746,-0.1746,-0.179,-0.179,-0.179]},{"header":{"parameterUnit":"m.s-1","parameterCategory":1,"la1":30.2991,"la2":30.254,"lo1":-89.0895,"lo2":-89.0444,"dy":0.0017,"dx":0.0017,"nx":28,"ny":28,"refTime":"2023-08-24T21:00:00:Z","depth":0,"parameterNumber":3,"parameterNumberName":"V-component_of_WINDS"},"data":[0,0,0,0,0,0,0,0,0,0,0,0,0,0,0,0,0,0,0,0,0,0,0,0,0,0,0,0,0,0,0,0,0,0,0,0,0,0,0,0,0,0,0,0,0,0,0,0,0,0,0,0,0,0,0,0,0,0,0.6293,0.6294,0,0.6311,0.6311,0.6311,0.6302,0.6301,0.6301,0.63,0.6317,0.6318,0.6319,0,0,0,0,0,0,0,0,0,0,0,0,0,0.6249,0.625,0.6293,0.6294,0.6294,0.6311,0.6311,0.6311,0.6302,0.6301,0.6301,0.63,0.6317,0.6318,0.6319,0,0,0,0,0,0,0,0,0,0,0,0,0,0.6268,0.6251,0.6293,0.6291,0.6291,0.6311,0.6311,0.6311,0.6302,0.6301,0.63,0.63,0.6317,0.6318,0.6319,0.6342,0,0,0.6324,0.6324,0,0,0,0,0,0,0,0,0.6267,0.627,0.6291,0.6291,0.6291,0.6303,0.6302,0.6322,0.6302,0.6298,0.63,0.6299,0.6313,0.6315,0.632,0.6343,0.6344,0.6324,0.6325,0.6325,0.6326,0,0,0,0,0,0,0,0.6266,0.6269,0.63,0.6291,0.6292,0.6289,0.629,0.6306,0.6309,0.6298,0.6297,0.63,0.6313,0.6318,0.632,0.6344,0.6324,0.6325,0.6326,0.6326,0.6386,0.6386,0,0,0,0,0,0,0.6265,0.6268,0.63,0.6301,0.6277,0.629,0.6292,0.63,0.6309,0.631,0.63,0.6299,0.6317,0.6319,0.6321,0.6347,0.6325,0.6326,0.6327,0.6385,0.6386,0.6387,0,0,0,0,0,0,0.6264,0.6268,0.6299,0.6284,0.6288,0.6291,0.6301,0.6301,0.6306,0.6311,0.6311,0.6305,0.6316,0.6319,0.6337,0.6348,0.6327,0.6328,0.6384,0.6385,0.6386,0.6401,0,0,0,0,0,0,0.6263,0.6267,0.6277,0.6284,0.6289,0.6315,0.6301,0.6302,0.6309,0.6307,0.6316,0.6316,0.6316,0.6335,0.6338,0.6349,0.6329,0.6383,0.6384,0.6386,0.6399,0.6402,0.6405,0,0,0,0,0,0.6261,0.628,0.6277,0.6281,0.63,0.6316,0.6318,0.6318,0.631,0.6319,0.6321,0.6316,0.6346,0.6337,0.634,0.6352,0.6382,0.6384,0.6386,0.6398,0.6402,0.6405,0,0,0,0,0,0,0.6274,0.6281,0.6278,0.63,0.6308,0.6314,0.6326,0.6322,0.6331,0.633,0.6328,0.633,0.6349,0.6352,0.6342,0.6374,0.6363,0.6365,0.6371,0.6374,0.6377,0.6376,0.633,0,0,0,0,0,0.6279,0.6292,0.6297,0.6316,0.632,0.6322,0.6329,0.6328,0.6335,0.6338,0.6342,0.6349,0.636,0.6368,0.6378,0.64,0.6401,0.6409,0.6412,0.6414,0.6417,0.6427,0.6431,0.6392,0.6392,0.6392,0,0,0.629,0.6296,0.6304,0.6319,0.6325,0.6337,0.6325,0.6339,0.6348,0.634,0.6357,0.6361,0.6368,0.6388,0.6397,0.6391,0.6427,0.6417,0.6418,0.6419,0.6429,0.6433,0.6436,0.6393,0.6393,0.6393,0,0,0.6317,0.6323,0.6339,0.6345,0.6353,0.6354,0.6358,0.6365,0.6367,0.6384,0.6378,0.6389,0.6408,0.6413,0.6418,0.6446,0.6441,0.6449,0.6463,0.6474,0.6477,0.648,0.6489,0.6492,0.6451,0.6451,0.6451,0,0.633,0.6349,0.6348,0.6362,0.6368,0.6362,0.6377,0.6383,0.6394,0.6398,0.6392,0.6415,0.642,0.644,0.6447,0.6451,0.6455,0.6448,0.6477,0.6479,0.6482,0.649,0.6494,0.6452,0.6452,0.6452,0.6452,0,0.6364,0.6377,0.6389,0.6399,0.6407,0.6422,0.6422,0.643,0.6428,0.6429,0.6446,0.6451,0.6462,0.6467,0.6465,0.6487,0.6483,0.6477,0.6466,0.6486,0.6494,0.6498,0.6453,0.6453,0.6453,0.6453,0,0,0.64,0.6409,0.6413,0.6418,0.6426,0.6436,0.6449,0.646,0.6466,0.6474,0.6485,0.6501,0.6495,0.6501,0.6499,0.6508,0.6529,0.6501,0.6501,0.6505,0.6552,0.6557,0.656,0.6525,0.6526,0.6527,0.6551,0,0.6427,0.6451,0.645,0.6473,0.6484,0.6478,0.649,0.6496,0.6497,0.6506,0.6508,0.6519,0.651,0.6514,0.6523,0.6524,0.6538,0.6523,0.6535,0.6536,0.6533,0.6565,0.657,0.6593,0.6554,0.6555,0.6555,0,0.6462,0.647,0.6494,0.6499,0.6504,0.6515,0.6524,0.6533,0.6539,0.654,0.6546,0.6542,0.6556,0.6544,0.6562,0.6551,0.6556,0.6558,0.6559,0.656,0.6547,0.6566,0.66,0.6604,0.656,0.656,0.656,0,0.6485,0.6502,0.6518,0.6522,0.6529,0.6537,0.654,0.6545,0.6551,0.6559,0.6563,0.6572,0.6577,0.6584,0.6582,0.6574,0.66,0.6589,0.66,0.66,0.6606,0.6606,0.6641,0.661,0.661,0.661,0.661,0,0.6515,0.6529,0.6529,0.6539,0.6555,0.6552,0.6568,0.657,0.6575,0.6585,0.658,0.6589,0.6587,0.6596,0.6595,0.6609,0.6612,0.6612,0.6611,0.6612,0.6612,0.6615,0.6614,0.6611,0.6611,0.661,0.661,0,0.6543,0.6543,0.6561,0.6565,0.6567,0.6578,0.6582,0.6591,0.6592,0.6604,0.6607,0.6608,0.6618,0.6617,0.6629,0.6628,0.6646,0.6644,0.6644,0.6643,0.6655,0.6653,0.6693,0.6698,0.6664,0.6664,0.6664,0,0.6562,0.6573,0.6579,0.6585,0.6589,0.6599,0.6605,0.6603,0.6609,0.6616,0.6624,0.6634,0.6641,0.6658,0.6659,0.6668,0.6666,0.6679,0.6667,0.6667,0.6665,0.6664,0.6665,0.6681,0.6682,0.6682,0.6682,0,0.6596,0.6595,0.6604,0.6613,0.662,0.6626,0.6633,0.6638,0.6636,0.6643,0.6654,0.666,0.6671,0.668,0.6688,0.6691,0.6686,0.6686,0.6689,0.669,0.6689,0.6689,0.665,0.6685,0.6685,0.6684,0.6684,0.6684,0.662,0.6629,0.6634,0.6644,0.6648,0.6654,0.6662,0.6663,0.6672,0.6681,0.6679,0.669,0.6695,0.6705,0.6709,0.6717,0.6712,0.6717,0.6718,0.6719,0.672,0.6688,0.6718,0.6718,0.6718,0.6718,0.6718,0,0.6653,0.6655,0.6664,0.6673,0.668,0.6675,0.6681,0.6687,0.6697,0.6702,0.6709,0.6721,0.6729,0.6731,0.6739,0.6746,0.6744,0.6748,0.6747,0.6748,0.6724,0.672,0.6749,0.6749,0.6749,0.6749,0.6749,0.6749,0.6671,0.6686,0.6685,0.6702,0.6704,0.6715,0.6719,0.6724,0.6727,0.674,0.6747,0.6748,0.6752,0.676,0.6767,0.6767,0.6771,0.6776,0.6775,0.6753,0.675,0.6747,0.6743,0.6776,0.6776,0.6798,0.6798,0.6798]}]]